This is the latest recevied weather packets stored in our database for station/object KD7CTY. If no packets are shown the sender has not sent any weather packets the latest 10 day(s).
| Time | Temp. | Humidity | Pressure | Rain* | Wind** | Luminosity | Snow |
|---|---|---|---|---|---|---|---|
| 1777847492 | 27.78° C | 37% | 1010.3 hPa | 0 mm | - | 651 W/m² | - |
| 1777847189 | 27.78° C | 37% | 1010.5 hPa | 0 mm | - | 653 W/m² | - |
| 1777846887 | 27.78° C | 37% | 1010.4 hPa | 0 mm | - | 646 W/m² | - |
| 1777846585 | 27.78° C | 35% | 1010.7 hPa | 0 mm | - | 664 W/m² | - |
| 1777846282 | 27.22° C | 36% | 1010.6 hPa | 0 mm | - | 675 W/m² | - |
| 1777845979 | 27.22° C | 37% | 1010.5 hPa | 0 mm | - | 683 W/m² | - |
| 1777845675 | 27.78° C | 36% | 1010.7 hPa | 0 mm | - | 695 W/m² | - |
| 1777845373 | 27.22° C | 38% | 1010.8 hPa | 0 mm | - | 701 W/m² | - |
| 1777845069 | 27.22° C | 37% | 1010.9 hPa | 0 mm | - | 704 W/m² | - |
| 1777844768 | 27.22° C | 38% | 1010.9 hPa | 0 mm | - | 720 W/m² | - |
| 1777844464 | 27.22° C | 38% | 1010.7 hPa | 0 mm | - | 718 W/m² | - |
| 1777844163 | 27.22° C | 37% | 1010.9 hPa | 0 mm | - | 724 W/m² | - |
| 1777843858 | 27.22° C | 40% | 1011 hPa | 0 mm | - | 730 W/m² | - |
| 1777843556 | 27.22° C | 39% | 1011.1 hPa | 0 mm | - | 734 W/m² | - |
| 1777843254 | 27.22° C | 39% | 1011.2 hPa | 0 mm | - | 731 W/m² | - |
| 1777842951 | 26.67° C | 41% | 1011.4 hPa | 0 mm | - | 746 W/m² | - |
| 1777842646 | 26.67° C | 38% | 1011.4 hPa | 0 mm | - | 750 W/m² | - |
| 1777842343 | 26.67° C | 38% | 1010.9 hPa | 0 mm | - | 744 W/m² | - |
| 1777842038 | 26.67° C | 38% | 1011.2 hPa | 0 mm | - | 750 W/m² | - |
| 1777841735 | 26.67° C | 40% | 1011.5 hPa | 0 mm | - | 749 W/m² | - |
| 1777841432 | 26.67° C | 41% | 1011.5 hPa | 0 mm | - | 746 W/m² | - |
| 1777841129 | 26.11° C | 40% | 1011.2 hPa | 0 mm | - | 736 W/m² | - |
| 1777840826 | 26.11° C | 40% | 1011.6 hPa | 0 mm | - | 745 W/m² | - |
| 1777840523 | 25.56° C | 43% | 1011.7 hPa | 0 mm | - | 731 W/m² | - |
| 1777840220 | 25.56° C | 44% | 1011.8 hPa | 0 mm | - | 543 W/m² | - |
* Rain latest hour (hover to see other rain measurements)
** Current wind speed in m/s (hover to see current wind gust speed)